GFSMW_925_spd_000.txt.gz
Wind_Speed
22 25 26 26 25 24 23 22 23 22 21 18 18 18 18 15 15 15 11 10 10 9 8 9 9 7 7 5 6 9 7 8 4 8 3 3 1 4 2 4 5 5 5
19 23 26 27 28 26 24 23 23 24 23 20 18 16 14 15 14 14 12 12 13 12 10 10 8 5 5 5 6 5 7 4 3 6 5 2 6 5 2 3 6 6 6
21 21 26 29 28 27 27 26 25 24 23 24 18 14 13 12 10 13 11 10 11 10 9 7 5 4 5 5 3 3 4 6 0 2 5 3 1 2 6 3 3 5 7
21 20 24 28 29 29 27 26 25 24 24 22 22 20 16 15 14 11 10 9 8 9 8 8 6 4 5 4 3 3 4 4 3 2 2 2 5 4 1 5 2 2 3
23 22 23 29 30 28 27 27 25 24 23 23 23 20 19 16 14 12 9 9 9 10 11 11 8 5 6 5 3 3 3 3 5 4 2 1 2 1 4 6 4 5 1
23 22 27 29 31 30 29 27 26 26 24 24 23 23 19 18 15 14 11 12 12 12 13 12 10 7 6 6 4 4 4 4 4 5 4 4 3 3 5 6 7 6 6
23 23 23 26 30 32 31 29 27 27 25 25 25 24 24 22 20 17 15 13 12 12 13 14 11 8 7 6 5 5 4 4 5 5 6 5 6 6 7 8 8 9 10
24 25 25 29 32 33 33 31 29 28 27 27 27 26 25 24 22 19 17 15 13 11 10 12 10 10 9 9 9 8 8 6 7 6 7 10 9 9 10 11 12 9 11
26 27 26 32 33 33 33 33 31 29 29 27 26 26 25 25 21 18 17 14 12 10 11 12 11 10 11 11 11 10 9 8 9 10 10 12 12 11 11 12 12 15 9
24 26 26 33 36 35 35 34 33 31 28 28 27 27 26 24 22 20 20 19 13 10 10 11 11 12 10 11 13 12 11 11 10 10 10 11 13 13 12 11 13 13 15
22 24 26 34 35 35 35 34 31 31 30 29 30 28 26 24 23 22 20 14 14 13 11 10 11 13 12 13 16 15 12 11 11 12 12 12 12 13 11 10 12 14 14
18 22 23 28 33 37 35 34 33 31 31 33 31 28 25 25 25 23 20 19 16 17 17 7 10 14 13 14 18 17 14 13 13 13 13 12 12 10 12 13 12 14 15
14 18 20 22 28 34 34 36 34 34 32 30 28 27 28 28 26 30 29 25 23 22 23 20 20 22 19 19 20 19 17 14 14 14 13 13 12 14 14 14 15 16 15
11 16 18 20 25 30 31 31 33 32 31 29 28 27 27 26 28 29 33 31 29 30 31 33 31 17 20 22 22 19 17 15 15 15 15 15 15 15 14 15 15 15 15
14 18 20 18 17 24 27 28 29 27 27 26 25 25 22 23 26 30 38 40 38 41 37 37 26 20 24 23 24 20 19 17 17 16 17 17 16 16 16 17 16 16 18
16 19 19 19 20 24 25 24 23 23 21 21 22 20 22 25 32 31 36 41 48 46 40 34 25 22 24 24 24 21 19 18 17 16 15 15 17 20 20 20 20 19 15
18 20 20 17 17 22 22 21 20 20 21 21 22 24 25 29 30 29 33 39 37 35 29 21 18 26 24 24 24 22 21 18 16 14 12 15 21 20 16 16 17 17 15
15 15 16 15 19 20 21 20 20 21 22 22 23 24 26 27 29 29 32 33 31 27 22 16 19 26 26 22 23 22 18 18 15 10 7 11 20 23 23 17 16 16 15
12 14 17 20 23 23 23 23 22 22 23 22 24 25 27 25 24 27 29 31 30 28 25 19 19 23 23 23 25 24 20 20 17 17 19 24 21 22 20 12 13 15 16
14 15 23 24 25 25 26 25 24 24 24 25 26 27 26 26 27 25 23 25 25 25 23 19 21 23 21 22 25 27 25 21 23 21 17 17 17 16 15 11 12 13 15
16 25 25 23 24 25 25 22 22 21 22 23 25 26 27 26 25 24 22 19 18 18 18 20 24 22 25 19 23 26 23 15 13 13 9 7 11 12 12 11 10 12 11
19 24 23 22 20 20 20 19 17 17 18 20 21 22 22 20 20 22 21 20 19 18 16 19 19 21 21 21 19 22 24 17 11 10 8 8 12 9 10 9 13 14 12
15 21 19 18 16 14 13 14 14 16 18 19 20 19 18 17 17 19 17 17 17 17 16 18 19 21 15 14 17 17 17 15 9 7 8 9 7 9 12 14 13 10 11
12 16 15 13 12 11 13 14 14 15 17 18 17 16 17 17 17 17 15 14 15 14 16 18 11 9 11 10 8 11 12 10 9 8 4 5 7 10 8 6 7 8 10
11 10 9 10 10 11 11 12 12 14 15 15 17 18 16 16 13 9 9 12 5 5 8 8 9 11 11 11 13 13 13 10 9 7 6 8 9 9 7 7 8 9 10
10 7 8 9 9 11 12 13 14 16 17 15 13 13 13 13 12 9 5 8 4 7 6 7 6 3 7 10 17 16 11 9 6 5 8 9 7 8 8 8 9 9 8

GFSMW_925_spd_003.txt.gz
Wind_Speed
20 27 28 27 27 26 27 26 25 24 22 20 17 18 16 17 17 15 13 10 10 11 10 10 10 6 11 3 9 9 9 6 2 7 6 7 5 6 3 5 5 5 4
20 23 28 28 29 29 28 26 26 25 25 20 20 20 18 19 16 13 13 10 13 12 9 10 8 7 7 3 4 5 7 5 2 8 7 3 7 7 3 4 5 5 5
22 22 24 30 30 30 30 29 28 26 25 24 20 15 11 11 8 12 10 11 12 11 9 7 7 1 3 7 1 2 3 7 0 1 5 3 4 7 8 6 6 3 5
23 22 24 29 31 31 31 28 28 27 26 25 22 20 17 17 17 14 15 14 12 9 8 7 5 3 5 2 2 3 4 3 4 0 3 2 5 6 5 10 8 4 3
24 24 25 31 31 31 31 31 28 27 26 26 25 20 20 17 13 12 9 9 6 8 8 6 5 3 4 4 2 2 3 2 4 2 3 4 3 2 3 5 4 5 2
24 24 29 32 32 32 32 30 31 29 28 25 25 22 21 21 14 14 12 10 11 9 9 9 8 5 3 4 4 3 4 4 2 5 1 5 3 0 3 4 6 6 6
23 24 26 25 32 32 32 30 30 29 28 27 26 26 22 19 15 11 15 10 10 10 12 11 10 8 7 6 5 5 4 4 4 4 5 1 5 6 6 6 8 12 19
23 25 27 27 31 33 32 31 31 29 29 28 27 25 24 23 21 19 14 14 11 10 10 13 12 11 10 9 8 9 8 7 6 6 7 7 6 12 8 5 1 3 12
23 27 27 31 32 34 35 35 31 31 30 30 27 27 25 25 23 20 21 14 13 13 13 16 18 16 14 12 10 10 10 7 8 10 11 11 10 8 7 6 7 12 6
22 24 25 29 33 36 36 35 33 31 31 29 28 27 27 26 22 20 18 20 18 18 17 17 19 19 18 18 16 13 13 11 10 11 10 11 10 9 11 9 12 8 11
19 22 24 32 36 36 35 36 35 32 32 31 29 28 28 27 27 24 25 23 22 21 22 26 26 22 19 16 14 12 9 11 10 12 12 12 11 10 11 9 9 10 12
18 20 24 27 33 34 37 37 36 36 35 31 30 29 28 30 30 30 29 29 30 29 32 30 25 21 20 19 16 14 13 14 13 14 15 14 15 15 14 9 13 13 12
14 18 20 23 24 34 35 38 37 38 35 32 32 31 33 32 32 34 34 36 31 32 32 29 26 26 25 21 18 16 14 14 14 13 14 14 14 12 14 14 13 13 14
6 13 18 20 22 32 35 35 36 37 34 33 34 33 33 33 34 36 38 35 36 37 33 29 28 25 23 19 16 16 16 16 15 14 15 14 13 14 15 16 17 18 17
12 13 17 17 18 25 32 34 32 33 33 31 32 31 31 32 33 36 38 38 37 39 35 31 27 23 20 18 17 17 17 17 16 15 14 15 16 19 15 15 18 22 19
14 14 16 18 18 22 26 32 33 30 32 32 32 32 32 32 34 34 35 32 32 28 24 24 24 24 23 20 22 19 17 18 18 16 14 17 15 12 14 17 17 19 25
21 15 17 19 19 26 26 27 30 30 29 27 29 26 31 32 32 32 31 33 32 26 25 30 25 20 19 20 22 21 19 19 17 16 16 15 16 15 12 15 15 21 23
24 15 15 18 24 29 29 28 30 29 29 27 26 28 30 29 28 29 31 30 30 32 28 25 23 19 18 20 18 18 21 20 21 18 17 16 16 16 16 20 21 24 20
18 12 17 24 24 28 29 28 28 27 25 26 25 27 28 29 27 27 26 26 28 29 27 24 21 19 18 20 23 22 20 21 21 20 18 17 20 21 26 24 21 17 18
16 12 20 26 25 25 31 29 30 29 27 28 28 28 28 27 25 24 22 19 19 21 20 20 21 20 19 21 23 23 25 24 25 18 17 21 22 24 20 16 12 15 17
12 15 19 19 23 24 29 24 25 26 27 26 26 26 25 24 21 19 17 15 13 14 19 21 20 20 17 18 22 24 21 20 17 16 17 17 20 17 15 13 10 13 16
15 22 17 20 23 24 25 22 20 23 24 25 26 25 24 22 20 18 16 14 15 15 16 18 16 14 15 18 20 21 23 19 16 17 17 16 20 12 11 12 14 17 17
15 22 21 22 22 22 21 18 18 22 23 24 23 23 21 19 20 18 17 14 13 13 15 15 13 12 14 16 22 24 22 20 23 17 19 11 10 10 13 16 16 16 13
17 23 20 17 16 16 16 16 17 19 20 20 22 22 21 18 18 16 16 15 15 15 12 10 9 10 11 15 11 15 13 16 15 13 9 7 7 9 10 5 9 9 10
17 20 17 16 16 16 15 13 14 17 18 19 20 22 20 19 17 12 10 14 8 9 9 9 10 12 11 11 11 8 11 11 13 12 10 9 11 13 13 11 9 12 13
17 17 17 17 15 15 14 13 13 15 20 20 20 18 19 17 20 15 9 7 5 5 4 5 3 1 6 8 16 18 13 10 10 7 12 13 12 12 12 10 10 10 11

GFSMW_925_spd_006.txt.gz
Wind_Speed
20 26 28 28 27 27 27 29 27 24 19 21 19 15 12 13 16 19 16 15 11 10 10 11 7 7 4 4 0 2 5 11 2 5 11 10 7 6 5 7 8 7 7
20 21 28 28 30 28 31 29 30 26 26 19 19 18 19 21 22 20 20 16 12 11 12 9 8 11 4 5 5 1 3 9 4 2 9 2 4 6 5 8 7 7 8
21 21 22 29 29 31 32 32 30 29 27 24 22 21 16 18 15 18 15 16 12 11 13 8 6 3 3 4 6 3 1 6 2 1 2 3 1 3 4 8 7 7 6
21 20 22 27 29 30 32 31 31 30 28 31 24 22 19 13 14 14 20 19 16 14 13 10 10 10 6 3 4 3 3 4 7 6 5 1 1 2 1 5 9 8 10
22 21 23 29 30 29 33 34 33 33 31 30 27 25 18 18 18 20 13 19 15 15 14 12 12 9 4 9 9 5 7 4 4 8 2 5 5 2 1 3 5 8 7
22 22 28 32 32 32 33 35 34 34 33 33 35 24 26 24 22 19 21 19 18 18 15 14 13 11 7 7 8 7 6 5 3 3 3 5 2 2 1 1 4 5 3
21 22 22 23 32 33 34 35 36 35 34 30 33 33 24 27 20 12 19 18 20 20 23 18 18 16 13 13 11 11 10 7 4 3 5 4 3 3 4 4 3 2 8
21 22 24 23 31 35 33 34 37 36 35 33 31 31 29 26 22 20 20 20 19 19 26 25 22 18 18 16 15 13 12 11 10 7 5 5 6 5 8 6 3 1 3
23 23 23 27 31 34 35 35 35 37 36 34 32 31 31 29 25 25 26 21 22 18 23 25 22 22 18 18 17 16 14 9 11 10 11 9 11 11 9 6 6 7 2
21 20 20 23 31 34 36 34 34 36 36 35 33 32 33 34 32 30 28 28 24 25 25 24 24 22 22 21 20 16 16 15 13 13 14 16 13 10 7 9 12 14 14
20 19 20 26 31 32 34 36 36 35 35 35 35 33 34 35 37 28 29 31 29 31 25 28 25 25 24 24 24 20 20 21 19 15 15 9 10 10 9 11 5 3 6
14 15 17 20 29 32 33 36 36 35 37 36 36 37 38 35 34 35 30 34 30 30 35 28 28 27 27 27 27 26 20 20 22 19 15 13 12 14 15 14 11 12 13
13 18 17 19 21 32 33 35 38 37 36 37 38 38 35 36 36 37 36 32 33 33 32 32 30 30 30 31 31 29 25 21 21 19 18 17 16 14 13 11 14 13 12
11 14 13 18 21 32 35 36 38 38 38 39 40 37 38 39 38 37 37 37 35 34 30 30 31 32 33 34 30 28 25 23 20 17 15 14 15 15 15 16 16 16 15
9 8 8 11 19 24 35 38 37 40 40 40 39 39 39 39 37 36 38 35 33 32 28 26 27 28 29 28 27 26 25 23 20 17 16 17 16 16 18 16 14 17 15
9 13 13 9 12 20 32 37 39 41 39 39 40 39 39 37 36 36 33 30 28 27 23 25 27 28 30 28 28 27 25 25 23 20 16 17 12 15 17 14 15 18 19
12 7 12 13 11 22 35 37 40 39 39 36 39 38 37 37 37 34 31 30 29 23 24 26 32 30 24 23 25 29 27 25 22 19 17 19 19 16 19 16 15 16 19
17 12 12 12 17 21 31 34 34 35 38 31 35 35 34 35 33 31 29 26 24 24 21 23 27 25 25 26 19 21 27 24 21 16 17 19 20 18 16 18 19 22 23
12 13 16 15 23 23 27 31 35 36 29 34 34 33 31 30 29 27 24 22 20 18 21 24 24 23 22 25 21 21 25 25 20 21 19 19 20 22 21 19 23 25 19
16 7 9 19 24 25 27 28 28 33 33 31 30 29 31 30 26 24 20 18 17 19 20 23 23 22 20 20 20 22 22 18 20 20 21 22 23 24 22 20 16 13 14
11 5 7 11 23 27 28 25 27 27 31 25 26 24 25 24 23 22 18 16 15 13 16 17 16 20 24 17 18 21 24 18 18 23 23 20 20 18 18 16 12 12 14
3 3 5 10 20 24 25 20 17 19 22 24 23 23 23 22 19 15 15 16 13 13 13 15 16 15 16 15 17 20 23 20 17 16 10 9 12 14 12 9 11 13 14
4 7 11 10 12 17 23 19 21 24 24 25 23 22 23 21 20 19 20 16 14 14 14 14 14 16 14 14 16 18 19 19 21 16 12 10 8 8 7 9 10 12 13
9 15 15 10 13 22 22 23 24 25 25 24 23 23 22 19 20 19 19 16 16 13 14 14 14 10 12 14 14 20 20 17 13 14 12 9 6 7 7 11 11 9 7
15 17 13 13 16 21 23 22 22 23 24 23 21 21 20 20 19 17 14 12 10 12 9 9 12 10 14 17 15 13 10 9 10 9 10 10 9 12 14 13 13 13 13
16 15 15 15 17 19 17 19 23 23 22 21 20 21 21 21 17 17 13 9 8 8 7 6 9 8 5 13 19 12 12 12 13 14 11 11 14 15 8 18 18 18 18

GFSMW_925_spd_009.txt.gz
Wind_Speed
17 27 31 33 30 34 37 37 32 29 33 32 29 24 22 17 21 16 15 15 16 15 15 12 8 8 6 6 5 2 3 3 4 2 4 5 3 7 8 13 10 10 7
20 23 30 33 34 37 39 39 37 28 35 34 30 25 22 19 20 18 19 21 20 16 14 11 9 9 11 10 10 3 3 3 4 1 1 2 1 5 8 7 8 10 8
23 21 26 31 34 36 40 42 41 38 29 29 26 23 22 21 20 21 21 23 25 19 14 12 10 7 8 14 10 7 4 1 0 2 4 2 2 2 10 12 10 6 4
23 23 24 30 37 36 42 42 42 42 36 30 29 28 23 22 24 22 25 23 25 19 17 15 14 12 9 13 10 10 7 4 1 3 4 4 3 2 1 8 12 8 7
23 25 25 38 39 40 42 44 44 43 39 36 31 29 28 29 22 26 25 29 25 21 18 17 15 17 13 10 13 12 9 8 4 2 7 6 6 3 3 2 4 10 10
23 24 35 39 37 37 40 41 41 41 38 40 36 33 32 29 30 25 20 27 28 22 21 19 19 20 17 15 16 12 13 11 8 5 4 4 2 3 2 3 2 5 12
22 21 24 24 35 35 40 39 42 39 39 41 40 35 33 31 30 29 22 29 30 26 24 26 25 22 17 15 13 14 13 13 9 7 6 3 5 5 5 5 2 1 2
21 23 25 27 35 36 38 38 40 39 39 41 39 41 34 37 36 29 23 33 31 31 29 29 27 23 19 18 16 16 16 14 14 11 10 5 3 3 5 5 6 1 2
13 23 23 30 35 37 38 42 39 39 40 38 40 42 43 40 37 33 24 32 29 30 31 31 29 27 21 20 20 18 17 17 16 14 12 11 10 8 7 12 10 7 2
19 19 21 26 36 40 40 42 43 43 40 40 40 41 43 44 36 34 33 26 30 30 29 36 32 28 25 24 23 21 19 20 21 17 15 13 11 10 6 4 14 11 11
25 21 24 31 37 38 37 40 43 41 40 40 39 39 40 40 37 36 36 34 30 29 28 35 33 31 28 26 26 25 23 24 22 21 18 16 15 14 14 8 2 5 10
29 26 23 22 31 37 38 39 39 43 44 43 40 40 38 35 36 38 38 38 36 34 35 35 36 34 32 31 31 31 26 26 27 24 21 20 17 14 14 14 8 5 5
20 20 20 21 20 34 38 38 38 41 43 42 40 38 37 35 36 39 39 38 41 40 37 37 39 39 36 34 34 34 31 27 27 27 23 21 17 18 15 13 11 10 10
14 15 19 21 22 33 37 39 38 40 41 41 40 38 39 40 38 38 41 40 38 40 39 41 40 39 38 36 35 34 31 29 25 26 25 24 21 19 17 15 15 14 14
10 13 22 21 22 28 35 38 41 43 42 41 40 41 41 39 37 36 36 40 37 38 38 39 37 38 37 35 37 35 33 28 27 24 23 23 22 20 18 18 18 17 18
9 12 15 19 19 23 31 38 40 43 44 42 42 41 37 38 36 36 35 35 38 35 35 34 35 33 33 33 33 35 31 26 27 26 24 24 23 23 21 20 19 22 22
10 10 10 11 19 29 38 37 42 45 44 42 41 42 40 36 38 34 33 34 34 32 32 31 30 32 33 33 28 30 30 30 30 30 27 24 24 19 17 19 19 17 18
3 8 12 9 21 30 35 42 40 42 43 41 40 42 40 40 34 35 34 31 33 33 33 31 30 32 32 28 26 29 31 31 32 31 30 27 26 22 19 16 16 18 18
18 9 14 14 28 33 37 35 37 39 41 38 40 43 42 38 35 34 30 29 27 27 28 28 29 28 25 29 25 18 27 34 33 28 21 21 22 19 16 17 21 23 22
8 11 19 12 20 26 36 36 36 35 37 41 42 39 40 35 31 33 29 29 31 23 27 22 22 25 27 25 28 31 24 24 26 25 24 22 24 22 21 20 20 18 17
5 16 19 11 25 30 34 32 36 35 43 36 31 31 31 31 35 35 33 30 25 23 18 18 21 23 26 28 27 26 25 25 25 22 20 23 25 23 20 17 16 14 11
5 5 7 10 26 29 31 25 27 31 31 32 31 31 35 35 39 37 30 27 24 20 22 20 23 25 25 22 21 23 22 24 21 15 13 14 14 17 14 11 11 7 8
7 11 9 10 11 29 29 21 25 33 33 33 32 33 34 33 30 29 26 23 21 20 21 24 23 20 17 18 19 19 20 24 20 17 14 11 10 10 9 7 6 7 7
6 11 14 11 10 20 26 31 33 38 35 33 31 32 33 29 28 26 26 26 23 20 19 18 18 18 17 16 16 16 18 18 20 19 17 13 6 6 6 8 9 9 9
3 12 12 13 15 23 24 28 31 36 30 28 27 28 31 27 26 22 20 22 19 18 20 19 19 18 17 20 17 17 19 18 18 14 11 11 11 10 10 12 13 13 10
36 15 20 23 24 26 27 30 33 36 31 27 24 25 24 29 31 28 25 18 16 14 14 16 14 16 15 14 14 15 12 9 11 15 15 13 11 12 15 17 16 15 14

GFSMW_925_spd_012.txt.gz
Wind_Speed
21 37 31 35 34 38 41 41 38 42 41 36 31 29 29 28 22 18 19 18 21 20 16 13 13 12 12 10 8 6 2 5 1 3 2 5 6 7 12 9 12 8 5
19 21 33 36 37 39 41 40 42 44 42 38 35 31 30 28 28 22 23 20 19 18 17 15 14 15 14 12 12 7 5 5 6 4 3 1 3 7 11 11 10 10 5
23 21 24 31 38 38 42 43 47 47 43 40 35 30 26 26 24 24 26 21 20 21 19 17 16 16 15 14 13 9 11 8 7 3 4 2 3 2 7 11 9 6 7
22 22 25 33 35 41 44 44 43 46 45 42 39 34 28 24 31 29 25 22 20 25 21 19 18 15 13 16 15 13 11 11 7 5 3 3 5 3 0 7 10 8 6
24 23 25 39 43 42 42 46 47 46 43 43 41 39 34 35 30 30 25 22 25 26 24 23 20 18 17 17 16 14 13 11 6 4 6 4 3 4 3 2 5 9 9
24 24 36 39 39 40 40 41 44 44 44 43 42 41 39 36 31 27 26 25 29 29 27 26 24 21 20 19 17 14 12 12 10 6 8 7 4 5 3 2 3 7 9
24 24 23 23 34 38 39 37 40 39 41 45 45 44 42 39 35 32 29 26 28 32 31 30 28 24 24 19 17 17 14 15 14 12 9 8 6 6 6 6 3 2 4
24 26 26 29 37 38 39 39 39 38 40 43 45 46 44 40 36 32 32 28 34 37 33 32 30 27 25 21 19 18 16 16 16 14 13 9 9 8 7 6 6 1 1
26 28 26 33 38 38 40 42 40 41 42 45 45 43 44 40 32 34 30 31 31 36 37 34 33 30 28 24 21 20 18 17 15 16 13 13 11 9 6 7 8 6 2
27 25 24 28 39 41 42 44 45 45 46 46 45 43 44 40 36 36 33 29 29 36 37 36 36 35 32 27 24 23 20 19 18 17 15 14 14 13 9 5 7 13 8
25 25 22 30 38 39 38 41 42 42 40 42 42 38 39 38 38 41 38 36 31 37 37 40 39 38 35 31 28 25 22 21 22 21 20 18 16 13 12 9 6 10 13
21 21 22 21 29 36 36 41 40 42 44 43 40 39 37 36 40 45 44 39 38 36 41 41 42 40 38 35 32 29 27 25 25 22 22 22 18 16 16 15 13 9 7
6 7 14 19 20 33 37 39 40 43 42 41 39 37 36 36 40 42 44 45 41 41 40 41 42 42 40 38 35 33 31 29 27 27 26 23 20 22 19 18 16 14 12
11 14 14 19 19 32 36 38 39 42 43 41 40 38 38 39 40 42 44 42 42 42 42 43 40 40 41 40 38 37 34 32 29 27 27 27 25 23 21 20 19 16 14
12 17 19 20 20 27 35 37 39 42 43 43 42 42 41 37 37 39 42 40 39 41 42 41 39 40 40 42 41 39 36 35 32 28 27 25 27 25 25 22 21 20 19
16 19 22 23 21 25 35 39 39 42 42 41 43 42 39 38 38 38 37 37 36 39 38 37 40 40 41 42 42 40 38 37 34 31 29 25 26 26 28 23 23 22 22
14 14 22 23 21 29 36 36 40 40 41 43 39 39 39 38 38 37 35 35 35 34 34 34 37 37 41 43 40 38 35 34 32 30 31 29 28 25 25 23 23 24 23
7 21 16 18 29 36 37 42 39 41 41 41 39 39 39 38 36 35 36 32 32 32 34 35 34 35 38 40 34 35 29 29 31 32 31 28 27 22 20 21 22 21 18
9 8 14 20 20 31 37 36 35 38 38 38 39 40 40 36 35 35 36 32 30 32 35 37 37 34 31 37 29 25 25 30 32 32 29 29 27 24 21 20 16 16 20
6 10 16 23 27 31 36 39 36 38 38 42 43 44 40 37 35 36 34 33 35 35 37 38 34 30 28 30 24 24 30 32 30 28 24 23 22 21 16 16 20 21 21
8 14 13 12 26 35 31 30 33 34 47 48 45 36 39 38 37 33 33 34 34 34 34 32 30 24 25 21 21 29 28 22 19 21 20 18 17 17 19 19 21 21 13
6 6 5 11 30 30 34 31 30 46 45 38 34 34 36 36 36 37 34 36 36 31 27 27 24 23 21 24 25 26 26 23 20 16 14 13 12 10 16 20 14 9 9
8 17 10 7 9 20 31 28 42 37 31 32 31 32 32 34 38 38 35 29 29 27 25 23 24 24 24 24 23 27 24 22 17 14 13 12 12 9 7 8 8 9 9
14 22 22 15 7 14 24 27 31 38 38 32 29 31 32 33 34 32 33 30 29 27 25 23 23 24 25 24 22 22 22 21 18 16 14 12 9 7 7 8 10 11 11
14 16 12 13 23 30 21 23 26 30 32 34 29 28 28 30 29 26 20 23 25 35 32 30 30 29 26 25 22 21 21 22 20 20 15 12 12 13 12 11 11 11 11
13 12 15 18 20 33 44 27 36 41 34 28 30 27 27 27 30 29 22 25 26 25 26 27 27 27 23 21 19 16 16 17 17 17 15 16 15 14 12 12 12 13 13

GFSMW_925_spd_015.txt.gz
Wind_Speed
22 30 31 32 30 32 35 40 37 38 39 35 34 33 29 27 21 19 18 19 24 22 20 16 14 12 11 10 9 7 5 5 2 5 5 5 5 7 7 6 5 3 3
19 25 28 31 34 38 39 39 42 40 42 39 38 31 35 31 29 22 18 20 22 23 22 19 16 15 14 14 12 11 5 6 4 2 4 2 2 6 8 9 6 2 3
23 22 26 34 34 35 39 43 46 44 45 40 39 34 32 33 30 29 24 22 23 25 24 21 17 16 17 17 15 13 8 10 5 4 3 2 3 1 4 9 9 4 2
21 21 24 30 37 41 43 43 42 43 46 44 37 36 29 25 29 32 30 25 24 25 24 22 19 18 19 18 17 15 10 9 8 5 3 3 4 3 0 5 8 7 6
23 23 24 36 40 40 41 43 43 43 45 46 41 39 29 32 29 31 29 25 24 24 26 25 22 21 19 17 17 16 13 13 12 11 6 4 3 4 3 2 4 8 7
23 23 33 34 35 36 37 40 42 44 44 48 47 42 35 33 31 30 31 29 26 26 28 28 25 23 22 19 19 17 14 13 13 12 11 9 4 5 4 2 3 5 7
24 24 22 24 31 35 37 37 39 39 42 45 45 44 41 38 37 35 31 31 30 29 28 28 28 27 25 21 20 18 17 15 16 14 11 11 9 6 7 5 3 3 5
23 25 26 27 36 38 38 38 38 39 40 43 45 44 43 40 40 38 35 32 31 32 27 31 31 29 27 23 22 20 19 16 17 17 14 11 10 8 7 6 6 1 1
24 27 26 30 37 37 40 43 42 43 43 45 43 40 41 37 38 40 37 34 33 32 29 32 34 32 29 27 24 22 22 19 19 18 15 14 11 10 8 7 8 6 2
21 23 22 26 36 40 43 43 46 47 48 46 44 41 43 42 39 40 39 36 34 33 30 33 36 33 31 29 27 25 23 21 20 18 17 15 14 12 10 8 10 13 8
20 22 22 29 35 35 37 40 41 43 43 41 40 38 38 38 38 42 41 39 35 35 36 35 38 36 34 32 31 28 25 24 22 21 18 16 14 13 12 11 8 10 11
24 21 23 20 27 32 33 39 42 42 45 43 41 41 42 38 38 43 44 42 38 35 33 33 36 39 36 36 35 33 29 28 26 25 22 21 17 15 14 13 13 11 9
15 15 14 13 17 29 34 37 41 44 42 40 41 39 38 39 40 44 43 45 42 40 37 34 36 39 38 37 39 36 33 31 30 27 26 23 20 20 17 13 16 17 14
14 14 11 12 15 27 32 35 40 41 40 39 40 39 40 41 42 43 42 41 44 42 39 39 38 41 41 40 39 40 37 34 33 30 28 26 24 23 20 20 20 19 17
10 13 14 15 17 23 31 33 35 36 40 40 39 41 38 38 37 39 41 42 40 42 42 40 39 40 41 41 41 41 40 38 36 32 31 27 26 25 24 21 20 18 19
9 9 20 20 19 22 34 37 37 37 39 39 41 40 39 38 38 39 38 38 39 39 40 41 42 42 40 40 40 41 39 39 37 35 30 29 28 25 23 23 22 19 21
11 14 15 14 18 25 34 35 39 37 39 41 38 37 37 37 38 37 35 37 37 38 41 40 41 42 42 40 39 39 35 35 38 35 33 33 29 24 21 19 20 19 19
10 10 12 14 21 30 36 38 33 36 39 39 37 36 39 39 36 35 37 35 35 39 39 40 40 41 42 42 40 36 30 23 33 35 31 34 29 26 22 19 20 17 18
10 11 15 17 22 29 32 30 30 33 33 34 35 37 39 38 36 37 37 34 32 33 36 39 40 41 40 39 38 32 30 29 31 30 29 27 27 23 19 18 16 17 16
4 6 17 18 20 24 26 29 29 32 33 35 40 41 41 38 38 39 38 37 36 33 33 39 41 41 38 37 36 29 31 27 30 25 22 23 21 18 17 17 19 17 15
9 10 10 4 12 24 27 20 23 27 38 38 40 37 37 40 41 36 35 38 37 33 33 34 35 40 40 35 29 32 31 29 25 23 20 20 18 15 13 15 16 17 14
13 16 13 15 19 7 9 15 23 39 36 32 29 32 36 36 34 35 33 34 33 31 29 26 27 30 34 26 25 28 24 23 21 20 19 17 15 14 12 15 16 14 11
8 12 13 12 20 21 7 11 31 29 31 29 31 33 33 33 34 34 34 31 32 27 24 23 22 24 25 25 28 26 22 19 18 17 14 13 13 11 12 8 10 11 12
10 11 11 9 7 14 17 16 16 20 23 25 32 34 34 36 39 37 35 33 29 27 23 23 21 23 26 26 25 24 21 20 20 17 15 14 12 11 10 11 12 13 12
6 12 9 8 14 24 23 20 20 27 21 27 25 23 24 34 30 29 29 30 28 31 26 21 23 24 23 35 31 29 28 27 24 20 18 17 14 11 12 12 13 13 13
6 6 10 10 14 20 24 27 23 14 21 15 18 23 27 24 27 32 33 27 24 25 20 16 5 14 23 26 27 26 27 28 25 23 21 18 16 15 16 15 13 13 13

GFSMW_925_spd_021.txt.gz
Wind_Speed
24 28 29 28 27 27 26 26 26 27 25 25 23 21 20 18 17 17 20 18 20 20 19 14 14 10 8 6 5 3 3 2 3 4 5 4 4 3 5 5 5 7 6
21 24 29 30 31 31 30 29 29 29 30 26 25 21 21 19 19 18 19 18 18 17 16 18 14 12 8 9 7 6 4 2 4 3 3 2 3 3 3 3 4 5 6
24 23 28 32 32 32 33 33 34 33 30 27 23 18 14 14 16 18 17 18 17 16 16 18 17 14 11 9 8 8 7 3 4 4 1 2 3 2 3 3 2 3 4
22 21 26 32 35 35 33 34 33 33 30 30 26 27 24 22 23 21 20 18 20 19 18 18 19 18 11 10 9 10 9 6 7 5 3 2 1 3 3 5 4 3 2
23 24 25 36 38 33 33 33 33 34 33 34 33 30 28 25 20 21 21 25 23 23 21 20 19 18 15 13 11 11 11 9 6 7 5 3 3 3 3 2 6 7 6
25 24 32 31 32 32 31 30 31 34 34 34 35 33 30 27 22 21 20 21 22 22 25 23 21 18 17 16 12 11 11 11 8 8 8 7 4 5 5 4 3 7 6
24 24 24 26 31 33 36 34 33 34 35 36 35 36 35 32 31 28 24 21 20 22 23 26 24 19 20 18 14 12 11 13 11 10 9 8 7 4 5 5 3 5 6
24 26 25 28 32 35 36 37 36 37 37 38 39 39 37 34 34 31 27 25 23 21 21 25 24 23 20 19 18 14 12 13 12 11 11 9 9 8 6 5 5 3 5
23 27 26 30 33 35 39 41 40 39 38 39 39 39 38 37 35 33 33 27 26 21 21 25 24 23 21 21 21 17 16 16 14 13 13 12 10 9 8 7 6 6 3
19 22 23 29 35 39 40 39 40 41 42 40 40 38 39 39 38 32 33 31 28 30 22 25 24 23 23 21 23 19 19 19 16 15 15 16 13 11 10 9 8 8 8
19 20 21 30 35 33 33 37 38 40 39 41 41 40 38 39 38 35 34 35 32 32 29 28 25 25 24 23 25 24 20 22 20 20 19 18 17 14 12 12 11 10 9
16 16 18 23 27 33 34 38 39 39 43 43 40 42 39 38 38 39 38 38 37 36 36 32 29 26 24 25 27 28 23 25 23 24 20 20 18 19 17 15 14 12 11
13 13 13 17 20 29 33 36 38 43 42 38 39 38 38 38 40 41 40 37 36 36 33 34 33 28 26 28 29 30 28 29 29 26 26 30 23 19 16 17 14 14 12
10 10 12 15 18 28 32 34 37 39 38 39 40 40 41 44 42 40 39 38 38 36 36 37 35 32 29 30 31 30 30 30 30 31 28 21 22 23 23 18 16 15 14
11 11 13 13 15 22 28 33 36 35 38 38 39 43 44 41 38 39 41 40 38 39 40 38 36 35 33 33 33 31 32 30 29 30 26 27 28 28 27 20 18 17 16
13 13 12 12 15 20 26 31 34 37 37 38 41 39 37 39 40 38 38 36 38 37 37 37 38 38 37 37 40 40 31 31 33 28 28 28 32 30 27 26 26 23 19
15 14 13 12 13 22 29 30 33 30 36 38 34 32 33 35 38 39 38 40 40 38 38 37 37 39 40 42 46 44 34 31 33 30 27 25 25 32 28 26 26 28 25
18 16 15 12 18 20 23 26 27 31 31 31 31 32 35 36 36 36 39 38 38 39 38 38 38 38 41 46 51 49 44 31 30 30 29 27 25 27 30 22 22 23 24
16 13 15 17 15 21 23 24 26 29 29 33 37 39 40 37 34 36 39 37 35 35 37 35 37 40 42 48 51 49 39 33 31 28 27 26 24 27 30 28 20 21 19
12 11 12 12 14 16 21 24 26 26 30 35 35 27 29 32 35 36 34 33 36 37 35 36 38 41 41 43 49 49 37 31 29 26 25 30 27 25 23 25 24 22 19
9 11 7 5 3 9 18 21 22 26 26 23 26 28 32 35 35 33 33 33 33 30 34 37 37 40 45 39 45 47 37 31 27 26 27 27 28 28 23 24 23 21 16
7 8 7 5 2 5 14 14 14 14 16 20 24 26 29 30 30 32 31 33 33 33 33 33 31 33 36 39 37 43 47 36 32 30 29 29 27 27 25 25 22 23 16
9 11 10 12 10 9 10 12 10 8 12 17 21 24 25 28 29 31 32 31 32 33 32 29 28 28 27 27 40 37 42 42 32 28 28 27 24 26 25 24 24 21 18
8 12 11 10 12 14 13 12 7 5 7 13 17 20 23 26 29 30 29 31 31 32 30 29 31 32 32 34 38 39 41 37 23 13 15 20 23 26 24 23 23 17 15
7 9 10 11 12 10 10 8 6 1 2 3 6 12 19 24 26 31 30 32 35 37 35 34 34 27 22 25 34 35 31 30 22 21 12 16 13 13 16 14 17 15 15
7 9 10 11 10 9 10 8 6 5 3 1 3 7 12 17 24 25 28 38 37 38 42 37 34 31 33 35 40 45 39 35 29 24 25 26 25 16 17 18 17 15 16

GFSMW_925_spd_024.txt.gz
Wind_Speed
23 30 30 30 28 26 26 26 26 26 25 24 23 21 21 18 17 16 15 14 12 11 11 11 6 6 5 1 4 3 3 3 3 7 6 6 5 5 5 5 7 5 3
21 25 30 31 31 29 28 27 27 27 28 25 23 21 20 19 18 17 16 16 14 13 13 12 9 9 4 4 4 4 3 2 5 1 1 5 8 6 4 3 4 5 6
23 23 28 32 31 32 31 30 29 28 27 24 22 19 18 17 19 19 18 17 15 13 13 11 10 9 7 6 5 5 4 2 4 4 4 3 1 7 7 5 4 4 4
23 22 25 31 34 35 32 30 30 29 26 27 25 25 23 21 20 20 19 18 16 15 13 11 10 11 8 6 4 5 5 5 4 6 6 3 5 3 5 8 6 5 5
24 24 24 34 34 32 32 31 30 30 28 28 27 27 24 22 18 19 18 19 17 17 15 13 11 11 10 8 6 6 7 6 5 7 7 6 6 5 5 3 10 9 8
25 25 30 30 32 32 31 31 32 32 32 32 32 28 26 24 21 20 20 20 20 19 19 17 14 13 12 11 9 9 9 9 8 7 8 7 6 6 6 5 4 6 10
22 24 24 25 31 34 34 32 32 33 34 35 33 34 31 28 25 21 22 18 19 20 21 21 18 17 15 13 12 11 11 12 11 10 10 10 8 6 5 4 2 4 5
21 23 25 29 33 37 38 37 35 34 34 35 36 34 33 31 29 27 25 22 21 19 18 21 22 21 18 16 15 14 13 13 13 13 13 11 11 10 9 8 5 4 6
22 25 26 32 34 36 37 39 38 37 37 37 35 36 35 35 33 31 28 26 22 19 19 21 23 22 21 19 17 17 16 16 15 14 14 13 12 11 11 10 9 8 4
22 21 22 29 36 38 40 41 41 41 41 39 38 37 37 36 36 31 31 28 28 26 21 23 23 23 22 21 21 19 19 18 18 18 16 16 15 14 13 11 10 10 9
19 20 21 28 32 33 35 39 39 39 38 40 40 38 38 38 36 35 34 34 31 28 27 26 24 25 24 24 23 23 21 21 20 20 19 19 15 14 13 13 13 12 11
16 15 17 19 25 31 34 38 41 41 43 42 40 41 39 39 38 38 38 36 35 34 31 29 27 26 27 27 26 26 25 25 23 23 22 19 17 18 16 16 14 14 12
9 12 13 16 18 26 31 34 36 40 40 38 39 38 39 39 40 38 38 37 37 36 35 33 32 31 30 30 29 28 28 27 26 24 24 21 21 21 20 19 15 15 13
10 10 12 15 17 23 27 32 36 37 38 38 40 39 40 43 41 39 39 39 38 36 36 36 35 34 33 32 31 30 30 29 29 27 25 23 24 24 21 19 18 14 15
4 6 10 12 13 18 24 29 33 33 35 36 38 40 41 39 37 38 38 39 38 39 38 36 36 36 35 35 35 34 33 32 31 29 27 26 25 26 23 20 19 19 18
16 16 11 13 13 18 22 25 29 33 34 32 38 35 34 35 37 35 37 37 38 38 37 38 38 38 39 40 42 39 36 34 32 31 29 26 27 29 29 28 23 22 20
17 15 14 14 13 18 20 23 26 28 32 35 32 34 33 36 35 34 34 37 38 36 38 38 39 40 42 45 47 49 41 38 35 33 30 27 26 27 25 31 28 29 26
18 17 16 14 16 18 18 17 20 27 30 31 33 33 34 33 30 33 37 37 36 39 39 39 40 40 43 47 49 50 47 34 33 31 30 29 26 25 26 23 26 27 27
18 17 21 21 19 20 19 16 20 24 29 31 36 36 33 32 33 36 38 37 35 35 38 37 38 42 43 46 50 51 41 37 32 31 30 29 29 28 29 26 25 25 26
17 16 20 16 16 19 18 19 21 24 29 31 30 31 32 33 35 35 34 34 35 36 35 37 40 42 42 45 50 52 41 36 37 35 32 34 32 30 31 30 25 24 22
15 17 17 16 16 13 14 19 20 25 26 25 26 28 30 33 34 32 32 32 34 33 34 35 36 38 42 41 48 53 47 40 36 36 34 32 35 32 31 30 26 25 23
14 13 11 11 11 11 15 18 18 19 20 22 24 25 27 29 29 30 29 31 31 31 31 32 34 37 39 44 43 51 57 44 37 36 34 34 35 38 32 30 26 27 24
9 9 9 6 5 7 11 12 11 14 16 19 21 22 23 25 25 27 28 29 30 32 32 33 34 35 37 40 47 48 54 55 41 35 35 35 35 36 34 28 30 24 25
1 1 2 4 6 7 8 9 9 10 12 14 15 16 19 20 22 24 26 27 28 30 31 29 30 33 32 34 34 44 46 50 42 32 31 32 30 33 33 32 30 26 23
3 5 5 6 9 10 10 8 7 5 6 8 10 12 15 18 18 22 23 26 28 29 29 32 31 28 31 33 34 31 34 37 37 40 37 34 33 32 31 32 31 29 25
5 9 10 9 10 10 10 9 8 6 3 3 5 6 9 12 16 18 20 28 29 24 35 35 33 32 39 36 37 39 43 45 45 37 30 31 32 29 30 27 27 31 26

GFSMW_925_spd_027.txt.gz
Wind_Speed
23 31 31 30 29 30 29 28 27 25 25 25 24 22 21 18 17 15 14 14 14 12 11 6 5 5 3 3 4 5 3 4 3 9 9 6 6 3 3 5 7 3 3
22 25 32 32 32 31 30 28 28 26 27 26 23 21 19 19 18 16 16 16 15 13 12 9 8 7 5 6 6 5 5 4 6 7 7 4 7 7 6 4 5 3 5
24 24 28 33 33 33 31 31 30 28 29 25 23 19 18 16 18 18 18 18 17 15 14 11 10 9 8 8 8 6 6 7 6 7 6 2 3 11 7 4 4 2 4
23 24 25 32 36 35 33 31 31 31 30 29 25 25 23 22 20 19 19 19 19 16 15 14 12 13 11 12 8 8 8 5 8 7 7 4 7 3 2 8 6 3 3
23 25 26 35 36 34 34 33 32 31 30 31 27 27 24 22 20 19 19 20 20 18 17 16 14 14 12 10 10 8 8 7 8 8 8 5 5 4 2 5 8 8 7
24 24 31 31 32 34 34 33 32 32 32 32 35 26 28 24 21 22 20 19 20 19 20 19 17 16 15 11 10 11 10 10 8 7 7 9 9 10 8 5 12 8 11
21 24 24 25 32 34 35 33 35 35 36 33 32 30 27 29 20 18 21 20 20 21 24 25 19 19 17 14 14 14 11 11 11 11 9 9 8 5 4 4 1 2 6
20 23 26 27 31 34 36 35 35 35 35 36 34 34 30 29 30 26 23 24 22 21 18 28 24 22 20 18 16 16 14 14 13 13 13 10 9 7 6 5 4 4 7
20 23 26 31 32 35 37 39 38 40 39 40 37 35 36 35 31 31 32 23 23 20 20 21 22 23 23 21 20 19 18 15 16 14 14 13 10 9 8 7 6 7 5
22 23 23 29 35 38 39 39 39 40 41 39 39 39 38 37 35 30 29 31 26 25 17 24 23 24 25 24 23 21 19 18 17 16 17 15 13 11 10 9 8 8 8
21 21 22 30 35 36 36 39 39 37 38 41 41 40 40 39 37 36 33 33 30 27 31 23 26 26 27 26 26 25 21 23 21 19 18 17 17 13 13 11 12 11 9
20 21 22 22 30 35 37 38 39 40 41 41 40 41 39 40 40 40 39 35 35 32 28 29 28 28 28 28 28 27 26 23 24 22 21 20 18 19 15 15 14 13 11
18 19 22 21 20 31 34 38 39 42 41 39 39 37 40 40 42 40 39 38 37 36 34 31 31 31 31 30 31 30 29 26 26 25 25 24 23 21 21 21 16 16 14
4 8 12 16 19 25 26 29 35 38 38 39 39 39 41 44 41 39 39 39 39 37 36 35 35 35 35 35 36 36 34 32 31 32 29 28 27 26 24 20 23 16 16
7 10 10 10 10 15 21 27 31 31 35 36 38 41 37 36 35 36 39 38 38 39 38 37 37 37 37 37 37 36 34 34 34 33 31 28 28 29 27 25 23 22 20
7 8 11 10 12 16 19 22 27 29 30 31 38 36 37 36 37 35 36 36 38 40 39 40 41 41 41 41 43 40 37 35 33 31 29 28 29 31 32 32 26 27 24
10 11 12 11 12 18 19 21 24 29 31 31 30 35 34 36 35 33 35 39 39 36 40 41 40 41 43 45 47 47 41 36 35 33 32 30 30 35 37 38 36 29 30
12 11 12 12 17 21 19 25 24 26 28 28 33 33 35 33 35 37 39 36 37 39 38 39 40 41 44 48 50 50 49 40 35 36 37 36 35 36 35 31 35 35 30
15 13 16 16 15 15 12 13 19 22 26 29 31 33 33 33 34 37 37 35 36 37 39 38 39 42 44 45 50 50 44 42 40 38 38 38 37 36 41 35 31 31 32
12 11 16 15 16 17 21 21 21 21 24 28 28 31 32 34 35 35 34 34 34 35 33 37 40 42 43 42 45 51 42 40 41 41 40 44 41 40 41 40 35 31 33
14 18 12 13 15 15 16 15 19 21 26 23 25 28 31 33 32 31 31 32 32 31 33 34 35 38 40 42 46 49 47 45 40 38 41 41 50 46 47 48 41 41 34
14 16 15 10 13 14 12 13 15 18 16 19 22 25 27 29 30 29 28 28 28 29 30 29 32 34 39 42 44 48 53 50 42 40 39 37 42 51 48 49 45 37 32
10 11 12 12 5 5 9 12 12 13 14 17 18 20 22 24 24 25 25 24 26 27 27 28 30 31 32 34 41 46 50 53 50 43 34 40 38 47 50 43 44 33 31
7 8 7 4 2 4 2 3 2 6 11 13 15 16 18 19 20 22 22 24 25 26 27 26 25 28 27 30 29 36 46 50 53 53 41 25 41 43 48 45 41 31 30
6 5 1 3 5 5 6 5 4 2 8 10 12 14 15 18 18 19 21 22 23 24 23 24 26 25 24 27 27 29 28 31 37 34 34 23 28 34 33 37 42 32 32
10 7 5 6 6 7 8 6 5 3 1 4 8 10 13 16 16 15 18 20 22 18 20 21 22 23 27 28 24 27 36 33 34 34 29 31 36 35 37 37 36 38 35

GFSMW_925_spd_030.txt.gz
Wind_Speed
23 31 31 31 30 31 32 32 29 25 31 26 24 20 20 18 17 13 12 14 12 13 11 5 7 6 3 3 5 3 1 4 2 10 10 5 7 0 3 12 10 6 11
23 24 32 33 31 34 34 34 31 30 30 27 25 23 21 19 18 17 15 15 13 14 14 13 7 9 9 5 6 4 5 7 4 2 5 3 6 6 10 10 5 6 10
24 23 27 32 33 35 35 36 35 31 31 27 25 23 19 19 22 20 17 20 17 18 15 13 11 6 7 8 7 6 5 1 5 4 2 2 2 5 6 6 10 6 8
22 22 22 29 34 34 36 37 36 33 32 30 26 24 21 20 18 22 20 21 21 20 18 18 12 11 11 13 11 10 7 6 10 4 2 2 4 2 1 8 11 6 4
25 25 24 32 33 34 35 36 36 34 31 35 26 29 26 22 24 20 21 24 25 23 21 18 17 15 14 13 11 12 11 7 7 9 7 3 4 4 2 2 6 6 10
25 26 31 33 31 33 35 34 35 34 33 33 38 27 29 25 23 24 23 23 22 25 22 18 19 18 15 12 14 13 10 11 6 6 7 9 5 8 7 3 8 14 12
22 24 26 25 33 34 37 37 38 37 38 35 38 37 29 36 25 27 26 23 25 24 27 25 21 21 19 16 16 15 14 13 10 10 5 7 9 5 5 5 7 4 13
23 25 27 26 34 35 38 39 40 41 40 38 36 37 29 32 36 23 25 26 23 26 25 28 28 25 22 21 18 17 16 15 14 11 14 9 8 7 5 5 5 1 6
22 26 25 29 34 35 39 40 41 40 40 41 36 36 38 31 32 29 29 24 26 20 25 29 33 30 25 25 23 20 19 17 18 17 16 16 12 12 10 10 8 4 1
21 23 24 26 36 39 39 39 39 41 44 42 41 39 40 38 33 37 30 30 25 28 17 29 32 29 27 25 25 22 22 23 20 20 20 18 19 12 13 12 11 9 7
22 22 23 30 36 36 36 38 38 38 38 41 43 41 38 39 39 32 36 31 35 23 30 22 30 30 29 29 28 28 25 26 26 23 22 26 21 19 15 17 13 12 11
20 21 22 23 30 35 36 39 39 38 41 40 39 39 38 38 40 41 36 36 31 37 29 31 29 29 31 30 32 30 30 28 30 32 26 26 26 25 20 15 19 16 14
15 19 21 20 21 33 36 38 41 41 36 36 36 35 38 40 39 39 41 37 38 33 38 31 32 32 31 32 32 32 31 31 27 29 29 28 26 25 28 22 17 21 17
10 17 18 20 19 31 34 35 37 38 38 36 37 37 37 38 37 37 38 40 38 40 39 38 35 34 36 35 35 34 34 34 33 29 29 30 31 29 28 29 29 21 24
8 9 13 16 18 23 32 33 35 38 38 39 39 41 40 37 37 37 37 37 40 42 41 39 39 38 37 37 37 36 36 35 34 33 31 33 34 36 37 36 33 33 23
5 4 4 3 5 12 23 33 33 33 38 38 40 41 39 40 38 38 38 39 41 40 39 40 39 39 40 41 43 41 38 37 36 34 34 33 36 39 41 38 35 36 34
1 3 2 5 5 8 16 23 29 30 30 36 36 37 39 39 40 39 39 40 39 38 40 39 39 42 43 45 47 48 42 38 38 37 35 36 38 42 43 43 40 36 36
5 4 7 7 12 16 19 19 22 29 29 27 28 31 34 37 37 39 39 38 38 39 38 38 40 40 43 46 48 49 50 41 40 40 41 41 39 39 43 44 47 45 42
7 7 12 15 17 20 24 29 28 29 29 29 28 30 30 31 35 38 38 37 36 36 38 38 37 41 42 42 46 47 47 45 44 43 43 43 42 42 42 43 44 43 41
10 9 16 17 9 4 12 10 23 23 26 30 31 29 33 32 34 35 35 34 34 34 33 35 37 39 40 39 41 45 42 40 44 42 44 47 46 44 45 48 40 35 39
9 10 10 13 8 11 13 13 9 15 29 29 26 29 30 34 32 30 30 30 30 29 32 33 33 36 37 38 38 41 42 45 37 38 40 42 45 50 49 50 44 44 33
11 11 8 9 13 6 10 13 10 13 12 21 27 26 27 27 26 27 25 27 27 28 29 28 30 31 32 34 36 40 43 42 38 40 36 37 41 45 53 51 52 44 37
6 11 12 9 9 3 5 6 10 8 10 11 19 21 21 23 24 25 24 22 24 25 24 25 25 23 24 27 30 37 40 44 49 43 41 35 33 40 47 54 54 50 39
9 13 16 8 8 7 6 4 2 4 7 7 10 13 15 18 20 18 23 23 22 22 22 19 19 21 22 23 26 29 38 46 48 51 50 46 45 30 40 50 59 56 47
18 17 14 5 5 5 6 6 6 5 4 5 7 8 11 16 16 18 18 20 23 20 19 22 22 18 15 4 9 14 8 24 40 46 38 34 36 38 36 33 42 50 47
13 13 10 5 6 7 5 5 3 3 3 9 10 12 13 15 15 16 16 17 11 9 8 4 6 6 7 15 21 24 26 23 17 24 27 30 32 33 36 37 35 39 44

GFSMW_925_spd_033.txt.gz
Wind_Speed
16 28 30 31 37 39 43 42 40 39 36 31 27 23 25 20 17 15 14 17 16 15 14 10 9 6 7 7 5 7 4 8 9 9 9 7 7 3 6 17 13 15 10
17 23 28 30 37 37 42 43 37 41 38 35 33 29 26 23 20 18 13 17 19 17 16 12 8 9 8 8 9 7 3 5 6 4 3 2 1 8 16 17 13 14 14
24 22 25 31 34 36 41 43 42 39 40 35 33 29 24 23 23 23 19 23 20 18 15 15 13 9 14 10 10 9 8 6 7 4 4 2 3 3 7 8 11 18 15
24 23 25 29 34 38 42 43 43 39 39 38 34 31 27 22 24 29 24 24 22 19 17 17 14 14 14 12 10 10 9 7 8 7 6 4 4 3 1 8 9 10 9
17 22 26 35 33 36 38 41 43 41 39 39 36 34 28 28 23 27 27 26 25 23 20 21 17 17 15 13 11 13 13 9 5 8 12 7 6 4 4 2 7 10 10
28 18 36 36 35 38 37 37 40 40 42 42 38 36 32 31 23 24 30 27 29 28 25 22 22 19 18 17 15 14 13 13 9 10 8 12 7 10 4 2 6 13 12
22 20 25 26 33 37 39 40 41 37 41 45 43 37 36 33 32 28 27 30 29 30 28 26 23 23 20 19 17 17 17 15 13 10 10 12 11 9 11 6 6 5 11
24 28 30 31 36 40 42 40 42 41 42 43 44 44 34 35 36 29 29 28 29 28 27 28 26 26 23 21 20 20 20 18 17 15 15 14 11 8 10 4 4 1 3
29 29 29 35 39 38 43 44 42 41 40 39 39 40 41 32 39 40 29 26 27 31 28 29 32 30 28 25 24 24 23 20 18 19 18 19 16 11 8 9 7 4 2
29 27 27 32 41 42 42 42 40 41 41 39 37 40 44 46 35 38 40 29 31 27 27 32 34 36 33 29 27 25 24 23 22 21 18 20 21 17 12 14 12 10 7
29 28 26 36 43 42 39 42 39 39 37 39 40 39 38 39 37 36 41 41 31 26 33 25 35 39 37 33 30 29 28 26 25 23 23 21 21 22 18 16 18 17 14
25 28 28 30 33 38 37 41 41 40 41 40 38 35 34 34 38 37 39 41 37 37 28 31 26 33 37 35 35 33 31 30 30 29 27 27 23 23 25 18 24 23 20
24 26 26 23 26 35 37 39 41 40 40 38 35 36 35 34 35 37 39 37 43 42 39 31 29 34 38 37 37 37 35 35 31 34 34 32 30 31 30 31 24 27 25
19 25 23 23 26 35 37 38 38 38 37 38 38 37 37 36 36 36 37 40 40 39 39 41 36 34 38 41 41 39 38 39 39 35 35 39 38 38 37 36 35 27 30
17 22 23 21 22 30 36 37 39 40 39 38 38 40 38 39 37 38 36 40 42 37 39 38 40 39 38 41 43 41 41 41 40 40 41 38 42 44 43 40 39 39 31
9 10 15 21 24 30 35 37 38 40 42 40 43 39 39 38 40 38 40 37 38 40 38 40 41 40 40 40 43 42 38 40 39 39 43 40 41 44 45 46 42 40 41
10 9 9 8 8 22 31 34 37 41 40 42 39 40 39 40 40 40 37 38 37 35 39 39 38 41 42 42 42 43 40 38 39 41 38 39 39 42 45 48 47 45 42
10 9 7 4 8 14 30 34 35 34 39 38 38 36 38 38 39 38 40 37 38 38 38 38 39 37 42 42 43 43 46 40 38 38 40 39 39 39 43 45 47 49 49
8 7 14 16 11 11 20 32 30 33 32 35 34 38 39 39 37 38 38 38 35 35 37 36 36 39 38 37 39 40 43 43 44 39 37 39 42 40 41 42 39 41 47
6 8 15 15 15 14 7 24 29 30 30 32 36 37 39 37 38 38 38 37 37 36 33 35 36 37 35 34 35 37 42 39 37 37 41 42 44 41 42 45 39 39 42
10 14 14 8 10 7 8 9 7 19 36 36 34 33 35 39 38 36 34 33 33 31 31 30 31 31 32 32 31 36 40 36 34 36 37 37 39 43 44 46 45 50 41
10 20 17 19 16 8 6 7 6 1 10 16 27 32 35 34 30 32 31 30 29 28 26 25 25 26 29 29 31 32 38 39 36 35 35 38 38 40 43 49 54 54 45
17 24 21 20 20 21 12 10 9 6 2 6 17 32 32 31 27 25 28 26 26 25 22 22 20 21 26 28 27 31 36 40 45 41 38 39 39 41 39 45 52 56 56
15 22 22 16 15 19 20 19 16 11 8 5 10 21 24 23 23 21 26 24 24 21 19 20 20 22 25 26 23 21 27 35 41 46 48 49 48 46 44 46 42 53 45
19 21 18 17 13 15 16 17 16 13 14 7 8 15 18 20 20 21 16 24 24 25 24 26 24 18 11 10 7 8 8 7 10 13 25 30 28 30 35 39 39 42 44
18 17 19 17 10 8 10 12 12 12 14 12 7 10 14 17 21 22 13 10 16 12 11 14 14 11 9 5 3 6 11 13 10 14 22 23 23 25 27 30 31 33 38

GFSMW_925_spd_036.txt.gz
Wind_Speed
26 33 34 36 32 32 40 43 41 43 41 36 32 27 25 21 14 9 24 22 17 17 15 11 11 9 9 7 4 6 6 9 17 16 9 7 11 11 13 13 11 10 8
24 29 36 35 35 36 40 41 43 45 44 39 37 33 29 26 21 13 15 24 21 16 19 16 12 11 11 9 8 7 5 7 6 6 5 3 5 9 13 17 16 14 10
23 27 32 38 37 38 41 43 45 48 46 42 36 32 29 27 24 20 20 18 24 20 18 17 13 12 12 10 9 10 6 6 8 6 4 2 1 1 5 17 15 17 14
21 24 27 36 39 40 43 43 45 48 46 44 38 34 28 23 31 27 23 20 25 24 18 16 17 14 13 13 11 12 11 7 10 8 6 4 9 3 1 7 12 19 17
22 24 25 38 42 40 41 42 46 46 46 45 41 38 30 31 25 28 27 23 25 26 22 18 18 18 17 15 13 14 15 11 10 11 12 7 6 5 3 2 5 13 15
24 25 36 37 36 39 40 39 41 44 45 46 42 39 36 34 33 25 28 29 28 30 27 22 20 18 21 19 17 16 16 14 12 13 14 12 8 8 4 2 6 11 11
23 24 23 27 32 38 41 42 42 39 43 45 43 43 40 37 35 32 28 32 30 34 32 26 24 24 22 22 19 18 17 18 15 13 12 15 14 9 10 6 5 8 11
22 23 26 34 37 39 42 43 42 40 42 45 44 44 42 40 37 35 30 28 33 33 32 30 28 26 25 23 21 21 19 19 18 15 14 12 12 11 10 11 7 1 4
24 26 25 35 37 39 42 44 43 42 41 43 40 38 42 39 40 38 37 30 31 31 30 32 31 30 28 26 23 23 22 21 19 20 17 17 15 13 11 12 11 8 3
26 22 23 33 40 41 45 44 43 45 42 41 40 39 40 44 42 38 38 35 30 31 30 31 33 32 31 30 28 27 25 23 23 22 21 23 23 21 17 14 15 15 12
27 25 23 35 42 40 39 41 41 41 38 39 40 38 39 39 38 40 41 40 35 26 30 31 31 34 35 35 33 31 29 28 28 26 25 24 23 26 24 20 19 19 17
31 26 26 31 35 36 36 39 39 40 42 44 41 40 36 35 36 39 41 42 42 39 25 31 29 37 36 37 37 36 33 32 31 31 28 29 27 27 29 28 26 25 24
30 27 23 22 27 35 36 37 38 42 41 39 37 35 34 36 38 39 39 42 41 39 37 29 33 35 34 37 40 39 37 35 36 35 34 34 32 32 30 31 32 27 27
29 25 23 22 27 36 37 38 37 38 39 38 37 36 36 36 38 41 38 36 41 41 38 39 37 31 33 35 36 39 40 38 37 37 37 38 38 38 36 33 34 33 29
29 27 25 23 21 32 35 34 36 37 39 37 37 37 37 37 38 37 40 38 36 41 43 40 43 39 38 36 38 40 42 41 39 39 40 41 41 42 42 39 39 37 36
28 29 28 25 22 30 34 35 36 38 39 39 39 37 36 37 37 38 36 38 38 40 37 42 41 43 43 39 41 41 42 43 42 41 42 42 42 45 44 44 44 42 40
26 26 26 25 23 34 37 35 39 36 37 37 35 36 36 35 37 37 35 34 37 37 39 38 39 40 39 39 39 41 43 39 41 41 40 41 42 43 45 46 47 47 48
12 8 9 10 19 25 29 28 29 35 36 33 33 33 33 34 33 33 33 33 33 34 37 37 39 38 40 39 40 40 41 39 38 39 39 40 39 42 43 42 40 48 54
7 8 14 15 23 30 32 32 31 32 31 32 34 34 37 35 34 33 33 34 32 33 34 35 36 38 35 35 39 39 41 43 40 39 41 42 41 40 38 40 38 40 51
7 8 17 23 24 11 26 27 29 29 32 33 35 33 34 37 35 36 35 36 36 34 33 33 34 35 34 34 33 35 40 37 36 37 40 40 41 38 38 42 40 39 43
14 16 23 18 14 15 15 18 19 26 35 33 34 35 40 40 38 35 34 32 32 32 31 31 31 31 32 33 32 34 37 38 33 33 34 34 35 38 43 43 44 47 42
17 22 20 22 25 18 19 18 11 5 20 19 30 34 35 34 31 34 33 33 31 29 28 26 25 27 28 30 31 34 37 40 36 32 32 32 34 39 41 43 49 52 52
17 21 17 17 25 28 24 22 17 13 3 8 24 29 31 32 33 34 31 27 28 26 24 23 22 22 25 31 34 35 35 36 42 40 35 35 35 34 35 40 45 47 49
13 16 18 14 14 19 20 18 16 16 14 6 7 11 20 26 31 30 29 25 23 22 20 20 19 22 28 30 29 28 30 32 36 38 41 41 40 40 39 36 38 40 45
18 22 17 14 13 15 16 15 14 13 13 12 8 11 14 20 23 20 20 23 25 28 26 27 26 19 17 17 16 18 15 12 14 13 16 18 20 24 24 25 28 33 36
20 18 18 14 12 14 14 15 15 14 12 11 7 7 11 15 21 18 11 10 19 22 23 21 19 9 9 10 9 9 9 11 12 13 12 16 18 20 19 18 15 15 18

GFSMW_925_spd_042.txt.gz
Wind_Speed
24 27 26 27 31 33 35 36 36 34 31 29 26 23 21 16 13 12 11 16 15 13 11 8 6 6 6 6 4 2 3 7 9 10 6 3 4 7 6 5 4 3 2
19 24 28 28 30 34 38 37 38 36 34 32 30 25 23 19 15 11 10 16 18 14 12 10 8 5 5 6 4 4 3 6 8 5 4 2 1 2 5 7 7 5 5
20 20 25 30 29 31 37 39 40 38 37 33 31 24 20 20 18 15 12 15 19 15 14 13 10 7 4 6 5 5 4 6 5 7 3 2 2 1 2 5 8 8 8
19 18 22 28 33 31 37 39 41 40 39 36 33 31 26 22 24 22 16 14 16 16 15 14 12 9 7 8 6 6 5 6 6 7 4 3 3 2 1 3 7 8 11
20 21 23 31 34 32 33 38 41 40 40 40 38 36 32 28 24 24 20 17 16 15 17 16 13 11 9 9 7 6 8 7 9 8 5 4 3 2 2 1 3 9 13
21 20 28 27 29 33 32 35 39 42 40 41 41 40 36 35 29 25 25 24 21 18 18 18 16 13 13 11 10 8 8 11 10 11 9 6 3 5 3 2 4 5 5
20 20 20 24 30 33 34 34 37 38 41 42 42 42 41 39 37 33 30 30 25 23 21 20 20 18 15 13 11 11 11 12 14 12 11 11 10 6 7 4 2 2 4
20 22 21 28 31 35 37 36 37 37 40 42 43 44 42 42 40 35 31 30 29 25 20 20 22 21 19 15 14 14 14 15 16 17 14 12 12 12 10 7 4 1 2
21 22 22 31 34 35 40 41 39 39 40 45 44 41 41 40 39 38 32 30 27 26 22 22 23 23 22 20 18 17 17 18 18 18 18 16 14 12 12 12 11 5 1
19 19 19 28 37 39 38 38 41 41 43 43 42 41 41 44 43 40 36 31 28 25 24 22 24 24 24 23 22 21 20 20 20 20 19 19 18 16 14 13 12 12 10
20 21 21 32 34 35 37 38 38 37 36 38 39 36 38 39 42 42 39 34 29 26 28 26 23 24 25 25 26 25 23 23 23 22 23 22 20 20 20 19 19 18 15
22 22 22 28 31 36 37 39 38 37 39 41 40 41 39 40 40 41 41 36 32 28 30 27 25 26 25 25 26 28 27 27 27 26 26 26 24 24 23 22 23 24 23
20 19 16 17 26 32 36 37 38 37 38 37 38 36 35 36 38 40 41 38 34 32 31 32 32 30 27 27 26 26 28 30 30 29 29 29 28 29 28 27 27 27 26
13 16 15 17 26 33 33 36 36 37 37 35 36 36 37 37 38 40 40 39 36 35 35 34 34 33 30 28 28 28 29 30 31 32 33 33 33 32 31 30 31 32 31
14 17 19 18 19 26 29 33 35 37 37 36 35 37 37 37 40 39 40 40 39 38 37 37 37 36 35 35 32 31 33 32 32 33 34 35 36 36 34 33 34 34 33
15 17 22 21 20 28 33 35 35 38 39 37 36 36 35 37 39 40 40 39 40 39 38 40 40 41 41 40 40 39 36 35 36 38 38 37 36 36 37 37 37 37 33
18 21 22 22 22 33 35 35 37 36 37 35 34 34 35 36 37 39 37 39 39 37 38 40 39 40 43 44 42 41 42 40 40 41 40 39 39 39 39 39 39 40 40
10 17 18 19 32 34 35 28 33 36 36 34 33 33 34 34 33 32 35 35 36 36 36 38 39 39 41 42 43 43 42 42 43 44 43 41 40 39 39 39 40 42 41
10 7 15 21 27 30 31 31 31 33 33 33 34 35 36 34 32 33 34 34 32 32 36 37 37 39 39 38 39 38 40 42 44 39 40 40 38 37 37 36 36 40 37
8 6 17 20 23 25 30 30 29 31 32 34 34 32 34 35 36 36 36 35 32 31 28 32 35 38 38 37 36 36 37 32 35 35 37 38 38 37 37 38 36 34 34
16 15 18 17 23 30 29 25 26 29 27 26 29 33 37 37 34 31 31 29 29 26 26 28 31 33 33 33 32 32 36 34 30 28 27 27 33 34 34 37 40 37 38
20 23 16 15 16 27 29 23 22 20 25 30 32 34 33 31 29 32 30 29 28 26 26 26 26 30 32 31 30 29 32 34 32 27 27 30 30 29 29 31 35 36 38
20 25 19 20 21 20 23 18 8 14 19 27 31 32 31 32 31 31 27 26 28 26 24 23 23 23 29 30 28 28 28 29 37 35 32 29 25 24 24 25 27 30 33
18 22 21 20 19 24 24 18 13 13 18 21 24 27 29 29 28 28 27 25 25 24 22 22 20 20 23 25 25 24 27 30 33 34 36 32 30 29 27 27 28 22 16
22 21 18 17 17 18 18 16 14 12 15 13 11 15 21 23 24 22 21 21 22 24 22 21 20 19 17 20 20 19 20 21 22 24 27 26 23 18 11 9 8 7 5
23 23 22 19 21 18 17 16 14 11 7 8 8 10 15 19 23 23 15 17 18 18 19 17 18 16 16 15 15 13 15 14 12 9 8 6 4 4 5 6 5 4 3

GFSMW_925_spd_045.txt.gz
Wind_Speed
28 29 28 29 27 26 25 25 25 24 21 19 18 15 15 12 11 10 8 11 11 8 7 6 5 6 5 4 5 5 6 6 8 7 5 2 1 3 3 2 1 0 1
23 28 30 29 30 29 29 26 26 26 27 21 20 14 15 12 9 8 9 10 13 11 9 8 6 7 6 8 5 4 5 4 6 3 3 3 3 2 3 4 4 3 2
25 24 30 32 31 31 30 28 28 28 29 24 19 18 13 13 11 9 9 10 15 14 11 9 8 6 5 7 5 4 4 5 4 6 1 2 1 2 3 3 5 5 4
23 23 30 34 35 33 31 31 30 29 30 30 22 23 20 17 16 14 11 10 14 16 14 12 10 7 8 6 6 5 5 6 6 4 2 1 1 1 1 3 4 5 6
24 25 30 37 36 33 32 30 31 33 31 30 29 27 22 20 15 15 15 14 15 16 15 14 12 10 7 8 8 6 8 6 6 4 3 2 2 1 2 1 1 4 8
25 24 32 32 34 33 31 32 33 35 36 33 33 32 27 23 19 18 17 16 14 16 16 14 14 11 8 9 7 8 7 8 6 6 5 4 2 2 3 3 3 3 4
24 24 25 30 33 35 34 33 34 34 35 35 33 33 33 31 27 25 21 20 18 17 17 17 16 14 13 10 10 10 8 8 8 8 6 6 5 4 3 4 4 4 3
23 24 25 31 33 35 36 34 34 36 37 37 36 38 37 29 29 28 24 22 20 20 19 21 19 17 15 13 12 11 10 9 8 9 9 6 6 6 6 6 5 4 5
25 27 27 34 34 35 37 37 35 35 36 38 37 37 37 34 28 30 30 23 22 17 19 22 19 18 18 17 15 13 12 11 10 9 9 10 8 7 7 7 7 7 5
23 23 24 33 36 38 38 37 36 37 37 36 36 35 36 37 34 29 30 28 24 22 19 23 21 19 18 18 18 14 13 12 12 11 10 11 10 10 9 8 7 8 8
22 23 24 35 38 37 37 39 38 36 36 36 35 35 33 34 33 30 30 30 30 26 25 24 23 20 19 19 19 19 16 14 14 13 13 13 13 13 12 11 11 12 11
22 23 24 31 34 37 38 41 40 40 39 38 37 36 35 33 31 33 29 29 32 30 29 26 25 23 20 19 18 18 17 17 17 16 15 15 14 15 15 14 15 15 15
20 20 19 21 28 34 37 39 40 43 41 38 37 35 35 32 33 33 32 31 34 34 29 26 27 24 24 21 20 21 19 18 19 18 18 18 16 17 16 17 17 16 16
16 16 17 18 27 32 36 37 38 39 39 38 37 35 36 36 35 33 32 31 35 35 33 31 28 26 25 23 21 20 20 20 19 20 20 20 19 20 19 19 18 17 18
12 17 20 19 22 28 32 34 34 36 38 37 37 38 36 35 33 31 32 32 31 35 36 32 29 27 25 25 25 24 22 22 21 21 21 21 23 25 26 21 20 17 18
11 13 19 19 19 29 34 38 38 38 38 37 37 35 34 33 34 33 32 30 32 33 30 29 28 27 28 30 33 31 24 23 22 23 23 24 28 31 32 32 30 28 24
13 14 16 19 23 32 36 37 40 38 38 37 34 34 33 34 34 33 32 32 32 29 29 28 28 29 32 37 37 37 33 28 27 26 25 24 24 26 26 25 29 31 32
16 17 16 18 30 35 37 32 34 38 37 35 34 33 34 33 32 31 31 31 30 29 29 28 29 29 32 38 39 38 38 33 32 31 31 30 31 29 27 25 27 27 27
17 18 25 29 27 31 34 33 33 35 34 33 34 34 34 32 31 31 31 29 27 27 28 27 27 29 32 37 37 35 30 32 34 33 32 31 32 31 31 30 30 31 29
13 14 23 25 28 30 34 33 33 35 35 36 36 33 34 33 33 32 31 30 29 28 26 27 28 29 30 32 36 33 27 28 29 28 29 32 34 32 32 32 28 30 28
14 4 18 19 25 31 33 30 31 34 34 29 30 31 33 32 31 30 28 27 27 25 26 26 26 26 28 30 34 32 30 28 26 25 24 24 27 30 31 33 31 30 27
18 15 9 15 25 31 31 28 27 25 27 28 29 30 30 30 28 28 26 27 26 25 24 24 23 23 24 29 28 29 30 31 26 23 21 20 23 26 23 25 29 29 30
17 21 17 19 15 13 17 20 18 25 30 29 29 28 28 27 25 27 26 25 25 24 24 23 22 21 20 21 24 28 26 27 33 25 22 22 22 22 22 23 25 27 30
16 23 25 23 22 19 15 11 8 15 24 26 26 27 28 27 26 25 25 25 24 24 23 21 20 19 18 18 17 19 26 27 28 31 30 28 27 26 26 26 24 24 24
26 25 22 23 23 22 21 16 12 4 14 20 23 24 24 28 26 24 22 24 22 24 23 21 20 19 17 17 16 15 14 17 22 23 20 21 23 22 21 18 10 8 7
26 26 27 24 22 21 20 18 16 11 6 8 10 13 15 20 22 22 17 20 20 23 23 18 16 17 15 13 13 14 14 13 12 12 14 13 11 9 7 6 6 5 4

GFSMW_925_spd_048.txt.gz
Wind_Speed
29 32 31 31 28 27 25 25 23 21 21 19 19 17 16 13 10 9 8 8 8 6 5 4 4 6 6 5 5 6 7 6 6 9 7 5 3 3 1 1 1 4 3
24 30 33 32 32 30 29 27 26 23 22 20 19 17 15 14 11 9 8 9 10 8 6 5 4 3 5 7 6 5 7 7 7 1 4 5 7 4 2 1 1 0 1
25 25 31 33 33 32 31 29 28 26 24 21 19 15 14 11 12 10 10 10 11 10 8 7 5 3 4 7 6 7 7 8 7 4 5 1 1 3 3 4 3 3 4
24 24 30 34 35 34 32 30 28 28 26 24 23 21 19 17 16 14 12 9 12 12 10 8 7 6 5 5 5 5 5 4 8 5 3 3 5 2 5 4 4 5 5
25 26 30 35 35 34 33 32 29 28 28 27 25 25 22 18 16 15 13 11 10 12 11 9 8 6 6 7 6 4 5 5 4 4 5 3 2 1 6 3 6 4 4
25 25 32 33 34 34 35 33 33 31 30 29 29 25 24 21 19 18 16 15 14 13 12 11 10 9 7 7 7 6 6 6 6 5 4 4 2 3 2 2 2 3 1
23 23 25 31 34 37 37 36 34 35 33 31 29 29 26 25 21 18 19 16 16 15 14 14 13 11 11 8 8 8 7 8 8 7 7 7 6 5 5 4 4 3 1
22 24 25 32 36 38 38 37 36 35 36 35 32 30 30 27 26 23 20 19 17 16 13 14 15 14 12 11 9 9 10 8 8 9 8 7 7 6 5 6 6 5 4
22 25 25 33 36 38 40 40 37 37 36 36 33 32 31 30 27 25 22 21 18 15 15 17 17 16 15 14 11 11 10 9 9 9 9 10 9 7 7 6 6 6 5
20 21 23 32 36 38 40 40 38 38 38 36 35 34 33 31 30 25 24 21 21 19 16 17 18 18 17 16 14 12 12 11 11 11 10 10 10 9 9 9 8 9 10
20 22 23 33 37 37 38 41 40 38 37 38 37 35 35 33 30 29 27 24 22 20 19 18 18 19 18 17 17 15 13 13 13 12 12 13 12 12 11 11 11 12 12
20 21 23 29 32 36 38 40 41 40 38 38 37 37 35 33 32 30 29 25 24 23 22 20 19 20 20 19 19 18 17 17 16 15 15 15 14 15 14 14 14 15 14
21 20 19 20 29 36 38 40 40 41 39 37 37 37 35 34 33 31 30 27 25 25 24 22 22 21 21 20 20 19 19 18 18 18 18 18 17 17 16 16 16 16 16
14 17 18 19 27 32 34 36 40 41 40 38 38 37 37 37 35 34 31 29 28 26 26 25 23 23 23 23 22 21 20 20 19 19 19 20 20 19 18 17 17 17 17
14 15 17 17 20 27 30 35 37 37 39 38 40 38 38 37 36 33 32 32 30 28 27 27 26 24 24 25 25 24 23 21 21 21 20 21 22 22 22 19 17 17 18
7 9 14 17 18 28 31 34 36 38 39 37 40 37 36 36 36 34 33 32 31 29 27 29 28 27 27 28 29 27 24 23 22 23 22 22 23 24 27 28 29 27 22
8 9 11 14 20 28 32 35 39 38 39 36 36 36 36 36 36 36 34 33 32 29 29 28 29 29 30 30 31 32 29 24 24 24 23 23 24 23 22 23 24 24 27
10 11 11 14 22 26 30 32 33 36 35 34 36 36 35 35 34 34 35 33 32 31 30 29 30 30 31 32 34 34 31 29 29 27 27 27 27 26 24 22 24 24 24
12 14 18 22 21 23 28 31 32 35 34 36 36 37 37 35 35 34 33 33 31 29 30 30 30 31 31 33 35 35 28 29 31 31 31 31 30 30 29 28 29 29 28
14 17 21 23 25 26 29 31 34 35 36 38 40 38 37 36 35 34 34 33 31 31 30 30 30 31 30 30 34 34 28 28 28 28 29 33 35 32 31 30 28 28 26
18 21 21 23 27 27 33 30 33 36 40 35 33 33 34 34 32 31 31 32 32 28 29 28 28 29 29 29 30 33 31 29 27 27 27 27 28 28 29 33 30 27 23
16 13 10 16 21 27 30 28 31 28 29 31 32 32 33 32 30 30 29 29 28 28 26 27 26 27 27 29 29 33 35 30 27 27 24 22 22 22 24 24 26 26 26
18 19 4 6 12 21 24 23 21 22 26 26 28 30 30 30 27 29 28 27 27 26 26 26 25 24 24 25 30 32 31 32 31 26 23 21 17 15 18 21 21 20 20
18 20 17 14 10 11 17 20 22 23 25 25 25 25 25 26 27 26 27 27 27 28 26 25 24 23 24 23 21 24 28 28 27 32 27 23 20 19 16 16 17 19 21
23 23 18 16 17 20 18 12 14 21 23 23 22 21 20 22 21 19 16 23 22 24 25 23 22 22 22 22 21 19 18 19 24 20 19 20 19 19 16 15 20 22 16
22 23 25 23 22 22 21 18 12 7 18 19 21 20 18 19 17 18 5 7 9 8 19 16 16 15 14 12 18 19 14 15 15 16 14 14 15 15 14 11 9 7 7